CW6318 Weather Reports


Display with metric or nautical units.
time (UTC)temp
F
wind
direction
speed
MPH
gust
MPH
rain 1hr
in
rain 24hr
in
rain mn
in
humidity
%
barometer
mb
20260902065005 59 238 0.0 0.0 0.00 0.00 0.00 76 996.1
20260902064501 59 238 0.0 0.0 0.00 0.00 0.00 76 996.2
20260902063959 59 238 0.0 0.0 0.00 0.00 0.00 76 996.2
20260902063500 59 239 0.0 0.0 0.00 0.00 0.00 76 996.3
20260902062459 59 238 0.0 2.0 0.00 0.00 0.00 76 996.3
20260902061959 59 238 0.0 2.0 0.00 0.00 0.00 76 996.4
20260902061500 59 238 0.0 1.0 0.00 0.00 0.00 76 996.3
20260902060500 59 239 0.0 1.0 0.00 0.00 0.00 76 996.3
20260902060003 59 239 0.0 3.0 0.00 0.00 0.00 76 996.3
20260902054500 59 259 0.0 3.0 0.00 0.00 0.00 76 996.4
20260902054001 59 245 1.0 3.0 0.00 0.00 0.00 76 996.5
20260902053500 59 255 1.0 2.0 0.00 0.00 0.00 76 996.5
20260902053000 59 243 0.0 1.0 0.00 0.00 0.00 76 996.5
20260902052459 59 243 0.0 5.0 0.00 0.00 0.00 76 996.5
20260902052000 59 243 0.0 5.0 0.00 0.00 0.00 76 996.4
20260902051458 59 250 0.0 5.0 0.00 0.00 0.00 76 996.3
20260902051001 59 252 0.0 5.0 0.00 0.00 0.00 76 996.2
20260902050501 59 241 0.0 2.0 0.00 0.00 0.00 76 996.3
20260902050004 60 241 0.0 6.0 0.00 0.00 0.00 76 996.3
20260902045000 60 252 0.0 3.0 0.00 0.00 0.00 76 996.2
20260902044507 60 225 0.0 3.0 0.00 0.00 0.00 76 996.1
20260902044001 60 246 0.0 5.0 0.00 0.00 0.00 75 996.1
20260902043501 60 252 2.0 4.0 0.00 0.00 0.00 75 996.0
20260902043002 60 235 0.0 4.0 0.00 0.00 0.00 75 996.1
20260902042501 60 244 0.0 4.0 0.00 0.00 0.00 75 996.1
20260902042002 60 243 0.0 4.0 0.00 0.00 0.00 75 996.1
20260902041001 60 245 0.0 3.0 0.00 0.00 0.00 75 996.1
20260902040500 60 244 0.0 3.0 0.00 0.00 0.00 75 996.0
20260902040002 61 260 1.0 1.0 0.00 0.00 0.00 75 996.0
20260902035459 61 285 0.0 1.0 0.00 0.00 0.00 74 996.0
20260902034500 61 287 0.0 2.0 0.00 0.00 0.00 74 995.9
20260902034000 61 246 0.0 4.0 0.00 0.00 0.00 74 995.8
20260902033459 61 246 1.0 4.0 0.00 0.00 0.00 74 995.8
20260902033000 61 292 0.0 2.0 0.00 0.00 0.00 74 995.7
20260902032500 61 237 0.0 0.0 0.00 0.00 0.00 74 995.7
20260902031959 61 236 0.0 0.0 0.00 0.00 0.00 73 995.6
20260902031459 61 237 0.0 0.0 0.00 0.00 0.00 73 995.5
20260902031000 61 237 0.0 3.0 0.00 0.00 0.00 73 995.5
20260902030500 61 237 0.0 3.0 0.00 0.00 0.00 73 995.6
20260902025959 61 269 0.0 1.0 0.00 0.00 0.00 73 995.7
20260902025001 62 269 0.0 0.0 0.00 0.00 0.00 73 995.7
20260902024459 62 268 0.0 0.0 0.00 0.00 0.00 73 995.8
20260902024001 62 269 0.0 3.0 0.00 0.00 0.00 72 995.8
20260902023501 62 269 0.0 3.0 0.00 0.00 0.00 72 995.7
20260902023000 62 269 0.0 0.0 0.00 0.00 0.00 72 995.7
20260902022501 62 269 0.0 0.0 0.00 0.00 0.00 72 995.7
20260902022001 62 269 0.0 0.0 0.00 0.00 0.00 72 995.7
20260902021001 63 269 0.0 0.0 0.00 0.00 0.00 71 995.7
20260902020501 63 269 0.0 0.0 0.00 0.00 0.00 71 995.7
20260902015500 63 269 0.0 2.0 0.00 0.00 0.00 71 995.6
20260902015002 63 275 0.0 1.0 0.00 0.00 0.00 71 995.7
20260902014500 63 274 0.0 0.0 0.00 0.00 0.00 70 995.6
20260902014001 63 274 0.0 0.0 0.00 0.00 0.00 70 995.6
20260902013501 63 275 0.0 1.0 0.00 0.00 0.00 70 995.6
20260902013002 64 274 0.0 1.0 0.00 0.00 0.00 69 995.5
20260902012501 64 274 0.0 0.0 0.00 0.00 0.00 69 995.6
20260902012003 64 274 0.0 0.0 0.00 0.00 0.00 69 995.6
20260902011501 64 275 0.0 0.0 0.00 0.00 0.00 69 995.5
20260902011002 64 275 0.0 1.0 0.00 0.00 0.00 69 995.5
20260902010504 64 274 0.0 2.0 0.00 0.00 0.00 69 995.4
20260902010003 64 276 0.0 2.0 0.00 0.00 0.00 68 995.4
20260902005001 64 286 0.0 3.0 0.00 0.00 0.00 68 995.2
20260902004502 64 288 0.0 3.0 0.00 0.00 0.00 68 995.3
20260902004001 64 252 0.0 2.0 0.00 0.00 0.00 69 995.2
20260902003459 64 284 0.0 1.0 0.00 0.00 0.00 69 995.1
20260902003000 64 223 0.0 1.0 0.00 0.00 0.00 70 995.1
20260902002501 64 223 0.0 1.0 0.00 0.00 0.00 69 995.1
20260902001959 64 222 0.0 0.0 0.00 0.00 0.00 69 995.2
20260902001500 64 223 0.0 0.0 0.00 0.00 0.00 69 995.3
20260902000500 64 223 0.0 2.0 0.00 0.00 0.00 69 995.2
20260902000002 64 222 0.0 3.0 0.00 0.00 0.00 69 995.1
20260901235459 64 214 0.0 3.0 0.00 0.00 0.00 69 995.2
20260901235000 64 236 0.0 1.0 0.00 0.00 0.00 69 995.2
20260901234459 64 237 0.0 4.0 0.00 0.00 0.00 69 995.2
20260901233959 64 236 0.0 4.0 0.00 0.00 0.00 69 995.3
20260901233500 65 231 0.0 2.0 0.00 0.00 0.00 69 995.3
20260901232959 65 231 0.0 3.0 0.00 0.00 0.00 69 995.3
20260901232500 65 248 1.0 3.0 0.00 0.00 0.00 68 995.3
20260901232000 65 238 0.0 4.0 0.00 0.00 0.00 68 995.4
20260901231459 65 233 0.0 4.0 0.00 0.00 0.00 68 995.4
20260901231000 65 260 0.0 4.0 0.00 0.00 0.00 69 995.4
20260901230501 65 275 3.0 3.0 0.00 0.00 0.00 70 995.3
20260901225501 65 221 0.0 4.0 0.00 0.00 0.00 69 995.4
20260901225000 65 246 0.0 4.0 0.00 0.00 0.00 70 995.5
20260901224500 65 249 0.0 4.0 0.00 0.00 0.00 69 995.5
20260901224002 65 235 0.0 4.0 0.00 0.00 0.00 69 995.4
20260901223500 65 237 0.0 4.0 0.00 0.00 0.00 69 995.5
20260901223000 65 267 3.0 4.0 0.00 0.00 0.00 70 995.4
20260901221500 67 233 0.0 4.0 0.00 0.00 0.00 67 995.5
20260901220500 66 250 2.0 4.0 0.00 0.00 0.00 70 995.4
20260901220002 65 204 0.0 4.0 0.00 0.00 0.00 70 995.4
20260901215459 65 269 0.0 5.0 0.00 0.00 0.00 71 995.4
20260901215000 65 269 0.0 5.0 0.00 0.00 0.00 69 995.5
20260901214459 66 237 0.0 4.0 0.00 0.00 0.00 70 995.3
20260901214000 66 229 2.0 10.0 0.00 0.00 0.00 69 995.2
20260901213500 66 236 10.0 10.0 0.00 0.00 0.00 69 995.3
20260901213000 65 270 0.0 5.0 0.00 0.00 0.00 70 995.3
20260901212500 65 227 0.0 6.0 0.00 0.00 0.00 68 995.2
20260901212000 66 225 2.0 6.0 0.00 0.00 0.00 69 995.1
20260901211500 65 233 0.0 6.0 0.00 0.00 0.00 69 995.1
20260901210958 65 227 0.0 3.0 0.00 0.00 0.00 69 995.1
20260901210002 65 231 2.0 5.0 0.00 0.00 0.00 69 995.2
20260901205000 65 250 0.0 6.0 0.00 0.00 0.00 69 995.2
20260901204459 65 227 0.0 6.0 0.00 0.00 0.00 68 995.2
20260901204002 65 323 1.0 5.0 0.00 0.00 0.00 69 995.2
20260901203501 65 262 0.0 6.0 0.00 0.00 0.00 68 995.2
20260901203002 66 209 0.0 6.0 0.00 0.00 0.00 66 995.2
20260901202500 66 204 2.0 6.0 0.00 0.00 0.00 67 995.1
20260901202002 66 218 0.0 6.0 0.00 0.00 0.00 67 995.2
20260901201501 66 211 0.0 6.0 0.00 0.00 0.00 66 995.2
20260901201001 66 240 1.0 6.0 0.00 0.00 0.00 66 995.2
20260901200500 67 238 1.0 7.0 0.00 0.00 0.00 64 995.2
20260901195959 66 248 0.0 7.0 0.00 0.00 0.00 67 995.3
20260901195501 67 240 0.0 4.0 0.00 0.00 0.00 64 995.3
20260901194459 65 211 4.0 4.0 0.00 0.00 0.00 67 995.5
20260901194000 65 217 3.0 4.0 0.00 0.00 0.00 67 995.4
20260901193500 65 248 1.0 3.0 0.00 0.00 0.00 67 995.6
20260901192959 65 250 0.0 3.0 0.00 0.00 0.00 68 995.6
20260901192500 65 249 0.0 3.0 0.00 0.00 0.00 67 995.7
20260901192000 65 217 0.0 3.0 0.00 0.00 0.00 68 995.8
20260901191001 63 231 0.0 4.0 0.00 0.00 0.00 70 995.9
20260901190501 63 212 3.0 4.0 0.00 0.00 0.00 69 995.9
20260901190001 63 236 0.0 3.0 0.00 0.00 0.00 71 996.0
20260901185501 63 237 0.0 3.0 0.00 0.00 0.00 70 996.1
20260901184959 63 244 1.0 3.0 0.00 0.00 0.00 71 996.1
20260901183959 63 238 5.0 5.0 0.00 0.00 0.00 71 996.3
20260901183500 63 289 1.0 4.0 0.00 0.00 0.00 71 996.4
20260901183000 62 250 2.0 4.0 0.00 0.00 0.00 71 996.4
20260901182501 62 240 0.0 4.0 0.00 0.00 0.00 72 996.3
20260901182000 62 239 0.0 4.0 0.00 0.00 0.00 73 996.4
20260901181000 62 248 0.0 5.0 0.00 0.00 0.00 74 996.3
20260901180500 61 291 2.0 5.0 0.00 0.00 0.00 74 996.4
20260901175000 61 271 0.0 3.0 0.00 0.00 0.00 75 996.4
20260901174500 60 295 0.0 3.0 0.00 0.00 0.00 75 996.4
20260901174000 60 234 0.0 3.0 0.00 0.00 0.00 75 996.5
20260901173507 60 237 1.0 2.0 0.00 0.00 0.00 76 996.5
20260901173001 60 237 0.0 1.0 0.00 0.00 0.00 76 996.6
20260901172504 59 237 0.0 2.0 0.00 0.00 0.00 76 996.6
20260901172001 59 236 0.0 1.0 0.00 0.00 0.00 76 996.5
20260901165000 57 234 0.0 0.0 0.00 0.00 0.00 75 996.4
20260901164501 57 234 0.0 0.0 0.00 0.00 0.00 75 996.5
20260901163502 57 235 0.0 2.0 0.00 0.00 0.00 75 996.5
20260901163001 56 236 0.0 1.0 0.00 0.00 0.00 74 996.4
20260901162002 56 244 0.0 4.0 0.00 0.00 0.00 73 996.4
20260901161500 56 248 0.0 0.0 0.00 0.00 0.00 72 996.4
20260901161001 56 247 0.0 2.0 0.00 0.00 0.00 72 996.4
20260901160004 55 247 0.0 2.0 0.00 0.00 0.00 71 996.3
20260901155501 55 247 0.0 2.0 0.00 0.00 0.00 70 996.3
20260901154504 55 247 0.0 1.0 0.00 0.00 0.00 69 996.3
20260901154000 55 247 0.0 0.0 0.00 0.00 0.00 69 996.3
20260901153500 55 247 0.0 0.0 0.00 0.00 0.00 69 996.3
20260901153001 55 247 0.0 0.0 0.00 0.00 0.00 69 996.3
20260901152501 55 247 0.0 0.0 0.00 0.00 0.00 69 996.3
20260901150501 55 247 0.0 0.0 0.00 0.00 0.00 69 996.2
20260901150001 55 247 0.0 0.0 0.00 0.00 0.00 69 996.1
20260901145500 55 247 0.0 0.0 0.00 0.00 0.00 69 996.1
20260901145001 55 247 0.0 0.0 0.00 0.00 0.00 69 996.0
20260901144459 55 247 0.0 0.0 0.00 0.00 0.00 69 996.0
20260901144001 55 247 0.0 0.0 0.00 0.00 0.00 69 996.0
20260901143500 55 247 0.0 0.0 0.00 0.00 0.00 69 996.1
20260901143000 55 247 0.0 0.0 0.00 0.00 0.00 69 996.0
20260901142500 55 247 0.0 0.0 0.00 0.00 0.00 69 996.1
20260901142000 55 247 0.0 0.0 0.00 0.00 0.00 70 996.1
20260901141501 55 247 0.0 0.0 0.00 0.00 0.00 70 996.1
20260901141001 55 247 0.0 0.0 0.00 0.00 0.00 70 996.1
20260901140000 55 247 0.0 0.0 0.00 0.00 0.00 70 996.0
20260901135502 55 247 0.0 1.0 0.00 0.00 0.00 70 996.0
20260901135000 55 247 0.0 2.0 0.00 0.00 0.00 71 995.9
20260901134500 55 246 0.0 2.0 0.00 0.00 0.00 71 995.8
20260901134000 55 239 0.0 1.0 0.00 0.00 0.00 71 995.8
20260901133001 55 240 0.0 0.0 0.00 0.00 0.00 71 995.8
20260901132459 55 240 0.0 0.0 0.00 0.00 0.00 71 995.7
20260901131959 55 239 0.0 0.0 0.00 0.00 0.00 70 995.7
20260901131459 55 239 0.0 2.0 0.00 0.00 0.00 70 995.7
20260901131000 55 240 0.0 2.0 0.00 0.00 0.00 70 995.6
20260901125959 54 244 0.0 1.0 0.00 0.00 0.00 69 995.6
20260901125459 54 245 0.0 1.0 0.00 0.00 0.00 69 995.6
20260901125001 54 245 0.0 1.0 0.00 0.00 0.00 68 995.6
20260901124501 54 245 0.0 0.0 0.00 0.00 0.00 68 995.6
20260901124000 54 245 0.0 0.0 0.00 0.00 0.00 67 995.6
20260901123459 53 245 0.0 2.0 0.00 0.00 0.00 67 995.5
20260901122500 53 248 0.0 2.0 0.00 0.00 0.00 66 995.6
20260901122000 52 243 0.0 1.0 0.00 0.00 0.00 66 995.6
20260901121500 52 243 0.0 2.0 0.00 0.00 0.00 66 995.5
20260901120459 52 206 0.0 3.0 0.00 0.00 0.00 68 995.4
20260901120003 52 254 0.0 2.0 0.00 0.00 0.00 69 995.3
20260901115459 52 254 0.0 0.0 0.00 0.00 0.00 71 995.3
20260901114959 52 254 0.0 0.0 0.00 0.00 0.00 73 995.2
20260901114459 52 254 0.0 0.0 0.00 0.00 0.00 74 995.2
20260901113959 52 254 0.0 0.0 0.00 0.00 0.00 74 995.3
20260901113500 52 254 0.0 0.0 0.00 0.00 0.00 74 995.3
20260901113001 52 254 0.0 0.0 0.00 0.00 0.00 75 995.3
20260901112502 52 254 0.0 0.0 0.00 0.00 0.00 75 995.3
20260901111458 53 254 0.0 0.0 0.00 0.00 0.00 75 995.2
20260901111003 53 254 0.0 0.0 0.00 0.00 0.00 75 995.1
20260901110002 53 254 0.0 0.0 0.00 0.00 0.00 75 995.1
20260901105459 53 254 0.0 0.0 0.00 0.00 0.00 75 995.2
20260901104959 53 254 0.0 0.0 0.00 0.00 0.00 75 995.2
20260901104459 53 254 0.0 0.0 0.00 0.00 0.00 75 995.1
20260901103959 54 254 0.0 0.0 0.00 0.00 0.00 75 995.2
20260901103459 54 254 0.0 0.0 0.00 0.00 0.00 75 995.2
20260901103000 54 254 0.0 0.0 0.00 0.00 0.00 76 995.2
20260901102500 54 254 0.0 0.0 0.00 0.00 0.00 75 995.2
20260901101500 54 254 0.0 0.0 0.00 0.00 0.00 75 995.1
20260901100000 54 254 0.0 0.0 0.00 0.00 0.00 75 995.1
20260901095459 54 254 0.0 0.0 0.00 0.00 0.00 75 995.1
20260901095000 54 254 0.0 0.0 0.00 0.00 0.00 76 995.1
20260901094459 54 254 0.0 0.0 0.00 0.00 0.00 76 995.1
20260901093959 55 254 0.0 0.0 0.00 0.00 0.00 76 995.0
20260901093501 55 254 0.0 0.0 0.00 0.00 0.00 76 994.9
20260901093002 55 254 0.0 0.0 0.00 0.00 0.00 76 995.0
20260901092500 55 254 0.0 0.0 0.00 0.00 0.00 76 995.1
20260901091959 55 254 0.0 0.0 0.00 0.00 0.00 76 995.0
20260901091459 55 254 0.0 0.0 0.00 0.00 0.00 76 995.0
20260901090959 55 254 0.0 0.0 0.00 0.00 0.00 76 995.0
20260901090500 55 254 0.0 0.0 0.00 0.00 0.00 76 995.0
20260901090002 55 254 0.0 0.0 0.00 0.00 0.00 76 995.0
20260901084959 55 254 0.0 0.0 0.00 0.00 0.00 76 995.0
20260901083959 55 254 0.0 0.0 0.00 0.00 0.00 76 994.7
20260901083500 56 254 0.0 0.0 0.00 0.00 0.00 76 994.7
20260901082959 56 254 0.0 0.0 0.00 0.00 0.00 76 994.7
20260901082501 56 254 0.0 0.0 0.00 0.00 0.00 76 994.7
20260901082000 56 254 0.0 0.0 0.00 0.00 0.00 76 994.8
20260901081459 56 254 0.0 0.0 0.00 0.00 0.00 76 994.8
20260901081002 56 254 0.0 0.0 0.00 0.00 0.00 76 994.8
20260901080002 56 254 0.0 0.0 0.00 0.00 0.00 76 994.7
20260901075501 56 254 0.0 0.0 0.00 0.00 0.00 76 994.7
20260901074959 56 254 0.0 0.0 0.00 0.00 0.00 76 994.6
20260901074459 57 254 0.0 0.0 0.00 0.00 0.00 76 994.5
20260901074000 57 254 0.0 0.0 0.00 0.00 0.00 76 994.6
20260901073459 57 254 0.0 0.0 0.00 0.00 0.00 76 994.5
20260901073000 57 254 0.0 0.0 0.00 0.00 0.00 76 994.6
20260901072500 57 254 0.0 0.0 0.00 0.00 0.00 76 994.5
20260901072000 57 254 0.0 0.0 0.00 0.00 0.00 76 994.4
20260901071500 58 254 0.0 0.0 0.00 0.00 0.00 76 994.3
20260901070959 58 254 0.0 0.0 0.00 0.00 0.00 76 994.3
20260901070459 58 254 0.0 0.0 0.00 0.00 0.00 76 994.2
20260901070000 58 254 0.0 0.0 0.00 0.00 0.00 75 994.2
20260901065500 58 254 0.0 0.0 0.00 0.00 0.00 75 994.2